OneWeb SL0570

operational
NORAD ID: 55149 Int'l Des: 2023-004 Owner: ONEWEBN Country: UK Constellation: oneweb
LEOCIRCULARPOLARONEWEB_TYPE

OneWeb SL0570について

説明を読み込み中...

リアルタイム位置

3D地球を読み込み中...

次回通過

高度履歴

Altitude vs Time

uPlot chart will show altitude changes over time

軌道要素

1 55149U 23004K 25305.49803500 .00000005 00000-0 -19347-4 0 9991
2 55149 87.9215 20.7101 0001874 83.3492 276.7853 13.18686361139686
Epoch: Nov 1, 2025 • Age: 26 hours

現在のステータス

高度 1191.5 km
速度 7.26 km/s
衛星直下点 9.47°N, 136.34°E
打ち上げ日 Jan 10, 2023
運用期間 2.8 years
タイプ internet

技術仕様

分類 Payload
質量 148.00 kg
乾燥質量 140.00 kg
総質量 148.00 kg
長さ 1.30 m
直径 1.00 m
スパン 5.00 m
形状 Trapezoid+2 pan
製造者 ONEWUS
バスタイプ ARROW
フェーズステータス In Orbit
所有者/国 ONEWEBN/UK

大規模コンステレーション

Loading constellations...